Simultaneous Nadir Overpasses (SNOs) Predictions

Prediction of SNOs between GOES-15 and LANDSAT-8 Satellite Orbit:

Table of predicted SNOs for the next 14.0 days since TLE Epoch: 3/2/2024
Index Date Time (GOES-15) GOES-15 Lat,Lon LANDSAT-8 Lat,Lon Distance(km) Time Diff (sec)
1 03/02/2024 06:05:14 -0.00, 61.30 -0.17, 62.05 85.43 80
2 03/04/2024 05:53:01 -0.00, 61.29 -0.82, 65.00 423.06 80
3 03/04/2024 18:14:23 0.01, 61.25 -0.32, 59.82 163.33 80
4 03/06/2024 17:59:30 0.01, 61.25 0.35, 62.78 173.47 80
5 03/07/2024 06:20:45 -0.02, 61.30 0.74, 57.62 417.34 80
6 03/09/2024 06:08:31 -0.01, 61.30 0.11, 60.58 80.52 80
7 03/11/2024 05:58:56 -0.01, 61.30 -0.48, 63.56 256.46 80
8 03/11/2024 18:20:20 0.02, 61.26 -0.59, 58.36 328.99 80
9 03/13/2024 18:05:25 0.01, 61.27 0.02, 61.33 7.48 80
10 03/15/2024 17:53:10 0.01, 61.28 0.64, 64.30 343.35 80
